Durant, OK

9:20 PM CST on December 05, 2019 (GMT -0600)
Eaker

Weather History for KDUA - October, 2019

Change the Weather History Date:

Saturday, October 19, 2019

  Actual Average (WUND) Record (WUND)
Temperature  
Mean Temperature 68 °F -  
Max Temperature 80 °F - - (-1)
Min Temperature 55 °F - - (-1)
Cooling Degree Days 2    
Growing Degree Days 18 (Base 50)    
Moisture  
Dew Point 53 °F    
Average Humidity 63    
Maximum Humidity 88    
Minimum Humidity 39    
Precipitation  
Precipitation 0.00 in - - ()
Sea Level Pressure  
Sea Level Pressure 29.76 in    
Wind  
Wind Speed 5 mph (NNE)    
Max Wind Speed 8 mph    
Max Gust Speed -    
Visibility 10 miles    
Events      
Averages and records for this station are not official NWS values.
T = Trace of Precipitation, MM = Missing Value Source: NWS Daily Summary

Daily Weather History Graph

Daily Weather History Graph

Search for Another Location

Airport or City:

Astronomy

Oct. 19, 2019 Rise Set
Actual Time 7:33 AM CDT 6:46 PM CDT
Civil Twilight 7:08 AM CDT 7:12 PM CDT
Nautical Twilight 6:39 AM CDT 7:41 PM CDT
Astronomical Twilight 6:10 AM CDT 8:10 PM CDT
Moon 11:08 PM CDT (10/19) 12:55 PM CDT (10/19)
Length of Visible Light 12h 03m
Length of Day
11h 13m
Waning Gibbous, 69% of the Moon is Illuminated
Oct 19
Waning Gibbous
Oct 21
Last Quarter
Oct 27
New
Nov 4
First Quarter
Nov 12
Full

Hourly Weather History & Observations

Time (CDT) Temp. Heat Index Dew Point Humidity Pressure Visibility Wind Dir Wind Speed Gust Speed Precip Events Conditions
12:16 AM 57.2 °F - 48.2 °F 72% 29.76 in 10.0 mi SE 4.6 mph - N/A   Clear
12:36 AM 57.2 °F - 48.2 °F 72% 29.75 in 10.0 mi Calm Calm - N/A   Clear
12:56 AM 57.2 °F - 48.2 °F 72% 29.75 in 10.0 mi ESE 6.9 mph - N/A   Clear
1:16 AM 57.2 °F - 48.2 °F 72% 29.75 in 10.0 mi South 4.6 mph - N/A   Clear
1:36 AM 57.2 °F - 48.2 °F 72% 29.76 in 10.0 mi South 3.5 mph - N/A   Clear
1:58 AM 55.4 °F - 48.2 °F 77% 29.76 in 10.0 mi SSE 5.8 mph - N/A   Mostly Cloudy
2:16 AM 55.4 °F - 48.2 °F 77% 29.77 in 10.0 mi Calm Calm - N/A   Overcast
2:37 AM 57.2 °F - 48.2 °F 72% 29.77 in 10.0 mi SE 3.5 mph - N/A   Mostly Cloudy
2:56 AM 57.2 °F - 48.2 °F 72% 29.76 in 10.0 mi ESE 4.6 mph - N/A   Scattered Clouds
3:16 AM 55.4 °F - 48.2 °F 77% 29.74 in 10.0 mi ESE 5.8 mph - N/A   Scattered Clouds
3:58 AM 59.0 °F - 48.2 °F 67% 29.71 in 10.0 mi ESE 6.9 mph - N/A   Mostly Cloudy
4:16 AM 59.0 °F - 50.0 °F 72% 29.70 in 10.0 mi SE 6.9 mph - N/A   Light Drizzle
4:37 AM 59.0 °F - 50.0 °F 72% 29.71 in 10.0 mi SE 4.6 mph - N/A   Mostly Cloudy
4:58 AM 59.0 °F - 50.0 °F 72% 29.72 in 10.0 mi SE 4.6 mph - N/A   Clear
5:16 AM 57.2 °F - 50.0 °F 77% 29.72 in 10.0 mi SE 4.6 mph - N/A   Clear
5:36 AM 57.2 °F - 50.0 °F 77% 29.73 in 10.0 mi ESE 4.6 mph - N/A   Clear
5:56 AM 57.2 °F - 50.0 °F 77% 29.73 in 10.0 mi ESE 4.6 mph - N/A   Clear
6:18 AM 57.2 °F - 50.0 °F 77% 29.73 in 10.0 mi SE 5.8 mph - N/A   Clear
6:57 AM 57.2 °F - 50.0 °F 77% 29.72 in 10.0 mi SE 8.1 mph - N/A   Clear
7:17 AM 57.2 °F - 50.0 °F 77% 29.72 in 10.0 mi ESE 3.5 mph - N/A   Clear
7:37 AM 55.4 °F - 50.0 °F 82% 29.72 in 10.0 mi SE 4.6 mph - N/A   Clear
7:57 AM 55.4 °F - 51.8 °F 88% 29.73 in 10.0 mi ESE 3.5 mph - N/A   Clear
8:16 AM 57.2 °F - 51.8 °F 82% 29.73 in 10.0 mi SE 4.6 mph - N/A   Clear
8:38 AM 59.0 °F - 53.6 °F 82% 29.74 in 10.0 mi ESE 3.5 mph - N/A   Clear
8:56 AM 60.8 °F - 53.6 °F 77% 29.75 in 10.0 mi ESE 3.5 mph - N/A   Clear
9:16 AM 62.6 °F - 53.6 °F 72% 29.75 in 10.0 mi ESE 4.6 mph - N/A   Clear
9:37 AM 64.4 °F - 55.4 °F 73% 29.76 in 10.0 mi SSE 3.5 mph - N/A   Clear
9:57 AM 66.2 °F - 57.2 °F 73% 29.76 in 10.0 mi South 3.5 mph - N/A   Clear
10:37 AM 71.6 °F - 57.2 °F 60% 29.76 in 10.0 mi Calm Calm - N/A   Clear
10:57 AM 73.4 °F - 57.2 °F 57% 29.76 in 10.0 mi WSW 4.6 mph - N/A   Clear
11:16 AM 73.4 °F - 57.2 °F 57% 29.76 in 10.0 mi WNW 3.5 mph - N/A   Clear
11:37 AM 75.2 °F - 57.2 °F 53% 29.77 in 10.0 mi WNW 5.8 mph - N/A   Clear
12:16 PM 75.2 °F - 57.2 °F 53% 29.76 in 10.0 mi NW 4.6 mph - N/A   Clear
12:36 PM 77.0 °F - 57.2 °F 50% 29.76 in 10.0 mi North 3.5 mph - N/A   Clear
12:57 PM 78.8 °F - 57.2 °F 47% 29.76 in 10.0 mi NNE 5.8 mph - N/A   Clear
1:16 PM 78.8 °F - 55.4 °F 44% 29.76 in 10.0 mi North 6.9 mph - N/A   Clear
1:36 PM 78.8 °F - 55.4 °F 44% 29.75 in 10.0 mi NE 3.5 mph - N/A   Clear
1:56 PM 78.8 °F - 55.4 °F 44% 29.75 in 7.0 mi North 4.6 mph - N/A   Clear
2:18 PM 78.8 °F - 55.4 °F 44% 29.74 in 10.0 mi NNE 5.8 mph - N/A   Clear
2:56 PM 78.8 °F - 55.4 °F 44% 29.74 in 10.0 mi North 6.9 mph - N/A   Clear
3:18 PM 80.6 °F 80.5 °F 55.4 °F 42% 29.74 in 10.0 mi NNW 4.6 mph - N/A   Clear
3:36 PM 80.6 °F 80.5 °F 55.4 °F 42% 29.75 in 10.0 mi NNW 5.8 mph - N/A   Clear
3:58 PM 80.6 °F 80.3 °F 53.6 °F 39% 29.75 in 1.2 mi NNE 6.9 mph - N/A   Haze
4:16 PM 80.6 °F 80.3 °F 53.6 °F 39% 29.75 in 10.0 mi NW 8.1 mph - N/A   Clear
4:37 PM 80.6 °F 80.3 °F 53.6 °F 39% 29.75 in 10.0 mi NNW 6.9 mph - N/A   Clear
4:56 PM 80.6 °F 80.3 °F 53.6 °F 39% 29.75 in 10.0 mi North 4.6 mph - N/A   Clear
5:17 PM 80.6 °F 80.3 °F 53.6 °F 39% 29.76 in 10.0 mi NNW 5.8 mph - N/A   Clear
5:36 PM 80.6 °F 80.3 °F 53.6 °F 39% 29.76 in 10.0 mi NW 5.8 mph - N/A   Clear
5:57 PM 78.8 °F - 53.6 °F 42% 29.76 in 10.0 mi NNW 5.8 mph - N/A   Clear
6:16 PM 78.8 °F - 53.6 °F 42% 29.76 in 10.0 mi NW 3.5 mph - N/A   Clear
6:36 PM 75.2 °F - 53.6 °F 47% 29.77 in 10.0 mi North 4.6 mph - N/A   Clear
7:16 PM 71.6 °F - 55.4 °F 57% 29.78 in 10.0 mi WNW 3.5 mph - N/A   Clear
7:36 PM 69.8 °F - 55.4 °F 60% 29.78 in 10.0 mi North 3.5 mph - N/A   Clear
8:18 PM 68.0 °F - 53.6 °F 60% 29.79 in 10.0 mi NNW 3.5 mph - N/A   Clear
8:36 PM 66.2 °F - 55.4 °F 68% 29.80 in 10.0 mi North 3.5 mph - N/A   Clear
8:56 PM 66.2 °F - 55.4 °F 68% 29.80 in 10.0 mi North 4.6 mph - N/A   Clear
9:16 PM 64.4 °F - 55.4 °F 73% 29.80 in 10.0 mi NNW 5.8 mph - N/A   Clear
9:37 PM 64.4 °F - 55.4 °F 73% 29.81 in 10.0 mi NNW 5.8 mph - N/A   Clear
9:56 PM 64.4 °F - 53.6 °F 68% 29.82 in 10.0 mi NNW 5.8 mph - N/A   Clear
10:16 PM 64.4 °F - 53.6 °F 68% 29.82 in 10.0 mi NW 5.8 mph - N/A   Clear
10:37 PM 64.4 °F - 53.6 °F 68% 29.83 in 5.0 mi NW 6.9 mph - N/A   Haze
10:56 PM 64.4 °F - 53.6 °F 68% 29.84 in 10.0 mi NNW 5.8 mph - N/A   Clear
11:16 PM 62.6 °F - 53.6 °F 72% 29.84 in 10.0 mi West 4.6 mph - N/A   Clear
11:37 PM 62.6 °F - 53.6 °F 72% 29.84 in 10.0 mi West 4.6 mph - N/A   Clear
11:56 PM 60.8 °F - 53.6 °F 77% 29.84 in 10.0 mi North 5.8 mph - N/A   Clear